Location: Spring Creek
(38.2870°N, 100.2160°W)
Time: 21:24:07
(UTC+00:00)

Cosmos 1943 Rocket - Pass Details

Date: 08 May 2021
Orbit: 814 x 842 km, 71.0° (Epoch: 21 June)

Event Time Altitude Azimuth Distance (km) Brightness Sun altitude
Exits shadow 06:17:02 42° 11° (NNE) 1,181 3.2 -34.3°
Drops below altitude 10° 06:20:40 10° 20° (NNE) 2,447 5.3 -34.4°
Sets 06:23:07 0° 22° (NNE) 3,380 6.2 -34.4°
